1998-067UY (55181 NORAD) Tracking and Keplerian Element Data

This shows tracking and keplerian element data for the satellite.

Feedback or suggestion? Click here.




ElementValue
Catalog55181
Name1998-067UY
Epoch Orbit108
Epoch Day13.30374372
Epoch Year2023
RAAN15.6895
Inclination51.642
Eccentricity0.0003372
Argument of Perigee220.7424
Mean Anonmoly139.3314
Mean Motion15.51365324
Decay Rate0.00076173
L11 55181U 98067UY 23013.30374372 .00076173 00000+0 12668-2 0 9996
L22 55181 51.6420 15.6895 0003372 220.7424 139.3314 15.51365324 1088



Live tracking and technical data element details for 1998-067UY (NORAD 55181). 1998-067UY can be tracked NOW for your location showing map with azimuth and elevation plus other details from your city location.







IsCatalogInMostPopularTable: catalog: 55181, numindb: 4
Update: records affected: 1



GetName: 55181 1998-067UY

Hit Count: updated at: Tue, 07 Feb 2023 15:31:32 GMT